Time,TemperatureF,DewpointF,PressureIn,WindDirection,WindDirectionDegrees,WindSpeedMPH,WindSpeedGustMPH,Humidity,HourlyPrecipIn,Conditions,Clouds,dailyrainin,SolarRadiationWatts/m^2,SoftwareType,DateUTC
2013-07-15 00:00:00,52.0,52.0,-100.00,SE,144,0.0,2.0,97,-99.99,,,0.02,0.000000,,2013-07-15 06:00:00,
2013-07-15 01:00:00,51.0,-99.9,-100.00,North,-999,-999.0,-999.0,-999,-99.99,,,0.02,,,2013-07-15 07:00:00,
2013-07-15 02:00:00,51.0,-99.9,-100.00,North,-999,-999.0,-999.0,-999,-99.99,,,0.02,,,2013-07-15 08:00:00,
2013-07-15 02:53:00,51.0,-99.9,-100.00,North,-999,-999.0,-999.0,-999,-99.99,,,0.02,,,2013-07-15 08:53:00,
2013-07-15 03:00:00,51.0,51.0,-100.00,SSW,192,0.0,2.0,99,-99.99,,,0.02,4.300000,,2013-07-15 09:00:00,
2013-07-15 04:00:00,51.0,51.0,-100.00,SW,217,0.0,1.0,99,-99.99,,,0.03,0.000000,,2013-07-15 10:00:00,
2013-07-15 04:53:00,51.0,51.0,-100.00,SW,217,0.0,1.0,99,-99.99,,,0.03,0.000000,,2013-07-15 10:53:00,
2013-07-15 05:00:00,51.0,51.0,-100.00,SE,146,0.0,1.0,99,-99.99,,,0.03,0.000000,,2013-07-15 11:00:00,
2013-07-15 05:52:00,51.0,51.0,-100.00,SE,146,0.0,1.0,99,-99.99,,,0.03,0.000000,,2013-07-15 11:52:00,
2013-07-15 06:00:00,51.0,51.0,-100.00,SSE,154,0.0,1.0,99,-99.99,,,0.03,0.000000,,2013-07-15 12:00:00,
2013-07-15 07:00:00,52.0,51.0,-100.00,ESE,113,0.0,3.0,99,-99.99,,,-99.99,3.400000,,2013-07-15 13:00:00,
2013-07-15 08:00:00,52.0,51.0,-100.00,NW,308,1.0,3.0,98,-99.99,,,0.03,22.900000,,2013-07-15 14:00:00,
2013-07-15 09:00:00,52.0,51.0,-100.00,NW,322,1.0,5.0,97,-99.99,,,0.03,82.699997,,2013-07-15 15:00:00,
2013-07-15 09:53:00,52.0,51.0,-100.00,NW,322,1.0,5.0,97,-99.99,,,0.03,82.699997,,2013-07-15 15:53:00,
2013-07-15 10:52:00,52.0,51.0,-100.00,NNE,32,1.0,4.0,96,-99.99,,,0.04,102.300003,,2013-07-15 16:52:00,
2013-07-15 11:00:00,52.0,51.0,-100.00,NE,55,1.0,5.0,95,-99.99,,,0.03,158.399994,,2013-07-15 17:00:00,
2013-07-15 12:00:00,55.0,53.0,-100.00,NE,49,1.0,3.0,92,-99.99,,,0.04,358.399994,,2013-07-15 18:00:00,
2013-07-15 14:00:00,55.0,49.0,-100.00,ESE,104,1.0,5.0,82,-99.99,,,0.04,303.700012,,2013-07-15 20:00:00,
2013-07-15 15:00:00,58.0,50.0,-100.00,ENE,70,1.0,4.0,77,-99.99,,,0.03,313.200012,,2013-07-15 21:00:00,
2013-07-15 16:00:00,58.0,48.0,-100.00,NE,36,1.0,6.0,67,-99.99,,,0.02,485.399994,,2013-07-15 22:00:00,
2013-07-15 19:00:00,54.0,45.0,-100.00,ESE,102,1.0,8.0,70,-99.99,,,0.02,95.500000,,2013-07-16 01:00:00,
2013-07-15 20:00:00,53.0,47.0,-100.00,NW,314,1.0,5.0,80,-99.99,,,0.02,9.500000,,2013-07-16 02:00:00,
2013-07-15 22:00:00,51.0,-99.9,-100.00,North,-999,-999.0,-999.0,-999,-99.99,,,0.02,,,2013-07-16 04:00:00,
2013-07-15 22:53:00,51.0,-99.9,-100.00,North,-999,-999.0,-999.0,-999,-99.99,,,0.02,,,2013-07-16 04:53:00,
2013-07-15 23:00:00,50.0,45.0,-100.00,ENE,72,0.0,3.0,84,-99.99,,,0.02,0.000000,,2013-07-16 05:00:00,
2013-07-15 23:52:00,50.0,45.0,-100.00,ENE,72,0.0,3.0,84,-99.99,,,0.02,0.000000,,2013-07-16 05:52:00,